Content
SEND FEEDBACK

Daily
Averages
Monthly
Summary
United States of America

UNIONVILLE, MISSOURI


Home > North America > United States > Missouri
Elevation: 1006 feet     Latitude: 40 28N     Longitude: 093 00W

WEATHER
 
SELECT A DAY
Number of Records: 159,054;   Date Range: 10/18/07 - 12/27/14
 
SHARE

PRINT THIS DATA

[ ← Previous Day ]
WEATHER ALMANAC - JANUARY 31, 2013
[ Next Day → ]
[ °C ]   °F
Weather ElementAverageHighLow
Temperature8.7 °F19.4 °F (12:35 am)1.4 °F (9:15 pm)
Dewpoint1.9 °F15.8 °F (12:35 am)-5.8 °F (9:35 pm)
Humidity74.1 %86 % (12:35 am)62 % (11:35 am)
Barometer30.11 in30.38 in (11:35 pm)29.87 in (12:35 am)
Wind Speed16.6 mph24.2 mph (4:55 pm)
Wind Gust31.1 mph (4:15 pm)
Weather ElementAverage
Visibility9.9 mi
Wind DirectionSW (230 °)

Weather ElementTotal
Precipitation---
Heating Degree Days54.6 (Base 65)
Averaged from 70 records on January 31, 2013
WEATHER CONDITIONS BREAKOUT
WIND DIRECTION BREAKOUT
WEATHER BY HOUR - JANUARY 31, 2013
[ °C ]   °F
Local TimeTemperatureDewpointHumidityBarometerVisibilityWind DirectionWind SpeedGust SpeedPrecipitationEventsConditions
12:35 AM19.4 °F15.8 °F86 %29.87 in10.0 miWest (270°)18.4 mphSnowLight Snow
12:55 AM19.4 °F15.8 °F86 %29.87 in10.0 miWest (280°)17.3 mphSnowLight Snow
1:15 AM19.4 °F14.0 °F80 %29.88 in10.0 miWest (270°)17.3 mph23.0 mphSnowLight Snow
1:35 AM19.4 °F14.0 °F80 %29.88 in10.0 miWest (280°)16.1 mphSnowLight Snow
1:55 AM19.4 °F15.8 °F86 %29.89 in10.0 miWest (270°)15.0 mphOvercast
2:15 AM17.6 °F14.0 °F86 %29.90 in10.0 miWNW (300°)12.7 mphSnowLight Snow
2:35 AM17.6 °F14.0 °F86 %29.90 in6.0 miWNW (300°)10.4 mphSnowLight Snow
2:55 AM17.6 °F14.0 °F86 %29.90 in10.0 miWNW (300°)16.1 mphOvercast
3:15 AM15.8 °F10.4 °F79 %29.90 in10.0 miWNW (290°)11.5 mphMostly Cloudy
3:35 AM15.8 °F10.4 °F79 %29.90 in10.0 miWNW (290°)13.8 mphPartly Cloudy
3:55 AM14.0 °F8.6 °F79 %29.90 in10.0 miWNW (290°)13.8 mphPartly Cloudy
4:15 AM14.0 °F8.6 °F79 %29.90 in10.0 miWNW (290°)13.8 mphClear
4:35 AM12.2 °F6.8 °F79 %29.91 in10.0 miWest (280°)10.4 mphPartly Cloudy
4:55 AM12.2 °F6.8 °F79 %29.91 in10.0 miWest (280°)10.4 mphPartly Cloudy
5:15 AM10.4 °F6.8 °F85 %29.91 in10.0 miWNW (300°)12.7 mphMostly Cloudy
5:35 AM10.4 °F6.8 °F85 %29.92 in10.0 miWNW (300°)15.0 mphScattered Clouds
5:55 AM10.4 °F6.8 °F85 %29.92 in10.0 miWNW (290°)13.8 mphClear
6:15 AM10.4 °F6.8 °F85 %29.93 in10.0 miWNW (290°)12.7 mphScattered Clouds
6:35 AM10.4 °F6.8 °F85 %29.94 in10.0 miWNW (290°)16.1 mphMostly Cloudy
6:55 AM10.4 °F5.0 °F79 %29.95 in10.0 miWNW (300°)18.4 mph23.0 mphPartly Cloudy
7:15 AM8.6 °F5.0 °F85 %29.96 in10.0 miWNW (300°)18.4 mphScattered Clouds
7:35 AM8.6 °F5.0 °F85 %29.97 in10.0 miWNW (300°)15.0 mphMostly Cloudy
7:55 AM8.6 °F1.4 °F73 %29.98 in10.0 miWNW (300°)18.4 mphScattered Clouds
8:15 AM8.6 °F1.4 °F73 %29.99 in10.0 miWNW (300°)16.1 mphPartly Cloudy
8:35 AM8.6 °F1.4 °F73 %30.01 in10.0 miNW (310°)17.3 mphPartly Cloudy
8:55 AM8.6 °F1.4 °F73 %30.02 in10.0 miWNW (300°)13.8 mphMostly Cloudy
9:15 AM8.6 °F-0.4 °F67 %30.03 in10.0 miNorthMostly Cloudy
9:35 AM8.6 °F-0.4 °F67 %30.04 in10.0 miNorthPartly Cloudy
9:55 AM8.6 °F-0.4 °F67 %30.05 in10.0 miNorthClear
10:15 AM8.6 °F-0.4 °F67 %30.07 in10.0 miNorthClear
10:35 AM8.6 °F-0.4 °F67 %30.09 in10.0 miNorthPartly Cloudy
10:55 AM8.6 °F-0.4 °F67 %30.09 in10.0 miNorthScattered Clouds
11:15 AM8.6 °F-0.4 °F67 %30.10 in10.0 miNorthPartly Cloudy
11:35 AM10.4 °F-0.4 °F62 %30.11 in10.0 miNorthClear
11:55 AM10.4 °F-0.4 °F62 %30.10 in10.0 miNorthClear
12:15 PM8.6 °F-0.4 °F67 %30.11 in10.0 miNorthSnowLight Snow
12:35 PM8.6 °F-0.4 °F67 %30.11 in10.0 miNorthSnowLight Snow
12:55 PM8.6 °F-0.4 °F67 %30.12 in10.0 miNorthMostly Cloudy
1:15 PM8.6 °F1.4 °F73 %30.13 in10.0 miNorthSnowLight Snow
1:35 PM8.6 °F1.4 °F73 %30.14 in10.0 miNorthMostly Cloudy
1:55 PM8.6 °F1.4 °F73 %30.15 in7.0 miWNW (290°)20.7 mph25.3 mphSnowLight Snow
2:15 PM8.6 °F-0.4 °F67 %30.16 in10.0 miWNW (300°)18.4 mph26.5 mphMostly Cloudy
2:35 PM8.6 °F-0.4 °F67 %30.16 in10.0 miWNW (290°)23.0 mph26.5 mphPartly Cloudy
2:55 PM8.6 °F-0.4 °F67 %30.17 in10.0 miWest (280°)20.7 mphScattered Clouds
3:15 PM8.6 °F-0.4 °F67 %30.18 in10.0 miWNW (300°)23.0 mph26.5 mphMostly Cloudy
3:35 PM8.6 °F-0.4 °F67 %30.19 in10.0 miWNW (300°)21.9 mph27.6 mphMostly Cloudy
3:55 PM6.8 °F-0.4 °F72 %30.20 in10.0 miWNW (300°)18.4 mph28.8 mphScattered Clouds
4:15 PM6.8 °F-2.2 °F67 %30.21 in10.0 miWNW (300°)23.0 mph31.1 mphScattered Clouds
4:35 PM6.8 °F-2.2 °F67 %30.22 in10.0 miWNW (300°)21.9 mph26.5 mphMostly Cloudy
4:55 PM6.8 °F-0.4 °F72 %30.23 in10.0 miWNW (290°)24.2 mph29.9 mphMostly Cloudy
5:15 PM5.0 °F-2.2 °F72 %30.24 in10.0 miWNW (300°)23.0 mph29.9 mphScattered Clouds
5:35 PM5.0 °F-2.2 °F72 %30.25 in10.0 miWNW (300°)20.7 mphClear
5:55 PM5.0 °F-4.0 °F66 %30.26 in10.0 miWNW (300°)21.9 mphPartly Cloudy
6:15 PM5.0 °F-2.2 °F72 %30.27 in10.0 miWNW (300°)17.3 mphPartly Cloudy
6:35 PM5.0 °F-2.2 °F72 %30.27 in10.0 miWNW (300°)20.7 mphClear
6:55 PM5.0 °F-2.2 °F72 %30.28 in10.0 miWNW (300°)16.1 mphClear
7:15 PM3.2 °F-2.2 °F78 %30.29 in10.0 miWNW (290°)17.3 mphClear
7:35 PM3.2 °F-4.0 °F72 %30.29 in10.0 miWNW (300°)15.0 mphClear
7:55 PM3.2 °F-4.0 °F72 %30.30 in10.0 miWNW (290°)13.8 mphClear
8:15 PM3.2 °F-4.0 °F72 %30.31 in10.0 miWNW (290°)15.0 mph19.6 mphClear
8:35 PM3.2 °F-4.0 °F72 %30.32 in10.0 miWNW (290°)15.0 mphClear
8:55 PM3.2 °F-4.0 °F72 %30.33 in10.0 miWNW (290°)16.1 mphClear
9:15 PM1.4 °F-4.0 °F78 %30.33 in10.0 miWNW (290°)16.1 mph21.9 mphClear
9:35 PM1.4 °F-5.8 °F72 %30.34 in10.0 miWNW (290°)16.1 mphClear
9:55 PM1.4 °F-5.8 °F72 %30.35 in10.0 miWNW (290°)16.1 mphClear
10:15 PM1.4 °F-5.8 °F72 %30.35 in10.0 miWNW (290°)15.0 mphClear
10:35 PM1.4 °F-5.8 °F72 %30.35 in10.0 miWNW (290°)15.0 mphClear
10:55 PM1.4 °F-5.8 °F72 %30.36 in10.0 miWNW (290°)12.7 mphClear
11:15 PM1.4 °F-5.8 °F72 %30.37 in10.0 miWNW (290°)12.7 mphClear
11:35 PM1.4 °F-5.8 °F72 %30.38 in10.0 miNorthClear
Hourly data recorded from KTVK, located miles away from Unionville, Missouri







STORIES FROM OUR PARTNERS